Total_Precipitation_Accumulation
0.15 0.17 0.22 0.19 0.21 0.24 0.30 0.45 0.64 0.47 0.14 0.04 0.05 0.08 0.14 0.15 0.17 0.16 0.14 0.14 0.19 0.26 0.34 0.37 0.37 0.45 0.68 1.20 2.12 3.42 4.09 3.48 2.56 2.18 2.06 2.24 2.55 2.98
0.19 0.23 0.25 0.25 0.25 0.27 0.32 0.37 0.51 0.64 0.40 0.08 0.05 0.09 0.19 0.20 0.18 0.16 0.15 0.17 0.17 0.19 0.23 0.29 0.36 0.43 0.55 0.78 1.26 2.09 3.31 3.97 3.56 2.86 2.43 2.47 2.65 2.94
0.22 0.26 0.27 0.29 0.32 0.30 0.33 0.36 0.38 0.46 0.46 0.14 0.05 0.06 0.17 0.23 0.21 0.16 0.15 0.17 0.15 0.17 0.21 0.28 0.36 0.45 0.57 0.71 0.95 1.39 2.12 3.12 3.77 3.58 3.08 2.76 2.67 2.73
0.24 0.28 0.30 0.29 0.30 0.29 0.32 0.34 0.32 0.31 0.37 0.24 0.08 0.07 0.12 0.20 0.28 0.28 0.22 0.20 0.19 0.19 0.23 0.31 0.41 0.47 0.54 0.68 0.87 1.14 1.52 2.10 2.87 3.36 3.31 3.00 2.74 2.72
0.26 0.30 0.30 0.30 0.30 0.27 0.32 0.32 0.27 0.24 0.29 0.32 0.17 0.10 0.13 0.15 0.27 0.37 0.32 0.28 0.25 0.23 0.24 0.27 0.34 0.44 0.49 0.58 0.74 0.94 1.14 1.38 1.83 2.61 3.17 3.11 2.92 2.79
0.20 0.19 0.26 0.36 0.36 0.35 0.38 0.33 0.30 0.34 0.38 0.44 0.33 0.21 0.20 0.21 0.32 0.44 0.47 0.43 0.35 0.28 0.27 0.26 0.31 0.44 0.47 0.45 0.46 0.57 0.77 1.09 1.44 1.91 2.58 2.99 2.89 2.77
0.13 0.12 0.21 0.36 0.42 0.56 0.68 0.59 0.59 0.68 0.66 0.68 0.60 0.48 0.41 0.42 0.46 0.46 0.61 0.59 0.50 0.41 0.34 0.28 0.28 0.28 0.30 0.31 0.33 0.41 0.53 0.74 1.08 1.48 1.92 2.42 2.77 2.82
0.14 0.11 0.14 0.27 0.31 0.41 0.57 0.68 0.78 0.92 0.98 0.98 0.93 0.81 0.59 0.52 0.51 0.60 0.69 0.81 0.78 0.55 0.50 0.38 0.34 0.37 0.32 0.29 0.33 0.39 0.49 0.64 0.89 1.23 1.57 1.90 2.30 2.70
0.12 0.11 0.12 0.21 0.29 0.35 0.42 0.47 0.53 0.69 0.92 1.04 1.09 0.81 0.62 0.55 0.67 0.82 0.81 0.90 0.85 0.77 0.85 0.72 0.46 0.44 0.40 0.44 0.51 0.48 0.51 0.60 0.75 0.99 1.30 1.58 1.86 2.22
0.10 0.11 0.11 0.16 0.29 0.50 0.51 0.46 0.41 0.48 0.70 0.91 1.13 0.97 0.79 0.78 1.01 1.27 1.34 1.24 0.91 0.78 0.95 1.04 0.66 0.54 0.55 0.59 0.60 0.53 0.51 0.54 0.64 0.83 1.07 1.30 1.54 1.82
0.09 0.09 0.12 0.15 0.31 0.56 0.59 0.48 0.35 0.34 0.43 0.71 1.00 1.13 1.11 1.16 1.33 1.65 1.79 1.62 1.23 0.82 0.87 1.09 0.96 0.79 0.81 0.86 0.78 0.65 0.54 0.55 0.60 0.71 0.85 0.99 1.23 1.56
0.12 0.09 0.16 0.28 0.42 0.58 0.55 0.53 0.61 0.48 0.41 0.42 0.48 0.60 0.71 0.80 1.04 1.37 1.61 1.63 1.36 1.20 0.99 1.07 1.20 1.17 1.29 1.14 0.99 0.75 0.56 0.55 0.58 0.63 0.67 0.74 0.94 1.12
0.21 0.16 0.14 0.32 0.44 0.53 0.60 0.60 0.79 0.74 0.56 0.54 0.49 0.45 0.46 0.57 0.74 1.05 1.40 1.61 1.57 1.34 1.09 1.29 1.56 1.39 1.39 1.25 1.10 1.00 0.71 0.54 0.53 0.61 0.65 0.66 0.74 0.82
0.23 0.17 0.19 0.34 0.45 0.55 0.54 0.59 0.65 0.62 0.54 0.48 0.41 0.38 0.42 0.49 0.59 0.77 1.09 1.30 1.34 1.21 1.02 1.30 1.80 1.59 1.42 1.18 1.07 1.14 0.99 0.73 0.59 0.59 0.62 0.77 0.80 0.79
0.27 0.30 0.37 0.45 0.45 0.36 0.33 0.42 0.45 0.44 0.53 0.53 0.42 0.36 0.40 0.51 0.56 0.62 0.77 1.05 1.20 1.18 1.13 1.20 1.56 1.65 1.58 1.33 1.04 1.08 1.15 1.04 0.79 0.71 0.69 0.68 0.63 0.61
0.39 0.38 0.42 0.41 0.33 0.25 0.22 0.22 0.23 0.32 0.49 0.56 0.45 0.34 0.33 0.40 0.52 0.65 0.75 0.92 1.14 1.18 1.19 1.28 1.52 1.83 1.75 1.32 1.13 1.06 1.02 1.16 1.06 0.90 0.81 0.73 0.62 0.47
0.55 0.59 0.47 0.36 0.32 0.26 0.19 0.15 0.16 0.23 0.31 0.34 0.38 0.38 0.36 0.38 0.45 0.58 0.79 0.94 1.10 1.16 1.25 1.42 1.58 1.77 1.82 1.74 1.55 1.19 0.98 0.95 1.01 1.01 0.96 0.92 0.82 0.62
0.63 0.63 0.43 0.29 0.26 0.25 0.23 0.20 0.16 0.17 0.20 0.26 0.33 0.38 0.42 0.44 0.46 0.50 0.66 0.88 1.04 1.10 1.18 1.33 1.53 1.73 1.88 1.98 1.79 1.40 1.09 0.96 1.03 1.11 1.07 1.04 1.02 0.84
0.49 0.40 0.31 0.26 0.24 0.23 0.23 0.23 0.20 0.16 0.19 0.24 0.27 0.31 0.38 0.42 0.44 0.47 0.54 0.70 0.89 1.02 1.13 1.23 1.39 1.59 1.72 1.86 1.96 1.64 1.31 1.07 1.07 1.27 1.28 1.12 1.01 0.91
0.33 0.32 0.29 0.26 0.25 0.26 0.26 0.25 0.22 0.20 0.20 0.22 0.23 0.25 0.31 0.39 0.42 0.42 0.48 0.62 0.78 0.91 1.01 1.12 1.31 1.49 1.63 1.59 1.68 1.73 1.64 1.35 1.16 1.28 1.40 1.31 1.20 1.15
0.27 0.27 0.26 0.28 0.28 0.28 0.27 0.26 0.25 0.23 0.21 0.22 0.22 0.23 0.25 0.31 0.35 0.35 0.41 0.51 0.67 0.81 0.90 0.94 1.09 1.28 1.49 1.51 1.43 1.42 1.63 1.67 1.36 1.29 1.40 1.46 1.43 1.34
0.25 0.27 0.27 0.29 0.31 0.32 0.31 0.29 0.28 0.24 0.22 0.21 0.20 0.19 0.20 0.24 0.29 0.30 0.36 0.44 0.52 0.65 0.78 0.86 0.96 1.19 1.47 1.62 1.54 1.41 1.50 1.67 1.70 1.52 1.43 1.42 1.47 1.38
0.31 0.31 0.30 0.29 0.30 0.32 0.32 0.30 0.29 0.24 0.20 0.20 0.20 0.18 0.18 0.20 0.21 0.25 0.30 0.36 0.44 0.53 0.64 0.79 0.93 1.09 1.32 1.52 1.62 1.54 1.44 1.48 1.57 1.62 1.73 1.55 1.18 0.95